{"data":{"norad_id":69690,"epoch":"2026-09-20T00:56:04.687296Z","epoch_age_seconds":61493,"freshness":"FRESH","line1":"1 69690U 26145P   26263.03894314  .00013802  00000+0  42903-3 0  9993","line2":"2 69690  97.2842 109.7297 0001400  93.0271 267.1132 15.33447432 13479","mean_motion":15.33447432,"eccentricity":0.00014,"inclination_deg":97.2842,"raan_deg":109.7297,"arg_perigee_deg":93.0271,"mean_anomaly_deg":267.1132,"bstar":0.00042903,"rev_number":1347,"period_min":93.906055724511,"perigee_km":464.57782435535,"apogee_km":466.49405277815,"semimajor_km":6843.6729385668,"source":"CELESTRAK","updated_at":"2026-09-20T09:00:44.254524Z"}}